This is the latest recevied weather packets stored in our database for station/object JS2QVS-13. If no packets are shown the sender has not sent any weather packets the latest 10 day(s).
| Time | Temp. | Humidity | Pressure | Rain* | Wind** | Luminosity | Snow |
|---|---|---|---|---|---|---|---|
| 1788580257 | 26.11° C | 68% | 1006.1 hPa | 0 mm | - | - | - |
| 1788579657 | 26.11° C | 67% | 1006.2 hPa | 0 mm | - | - | - |
| 1788579057 | 25.56° C | 68% | 1006.1 hPa | 0 mm | - | - | - |
| 1788578457 | 25.56° C | 68% | 1006.1 hPa | 0 mm | - | - | - |
| 1788577257 | 25.56° C | 69% | 1006.2 hPa | 0 mm | - | - | - |
| 1788576657 | 25.56° C | 67% | 1006.2 hPa | 0 mm | - | - | - |
| 1788576056 | 25.56° C | 69% | 1006.4 hPa | 0 mm | - | - | - |
| 1788575456 | 25.56° C | 69% | 1006.4 hPa | 0 mm | - | - | - |
| 1788574856 | 25° C | 70% | 1006.5 hPa | 0 mm | - | - | - |
| 1788574258 | 25.56° C | 69% | 1006.7 hPa | 0 mm | - | - | - |
| 1788573658 | 25° C | 69% | 1006.8 hPa | 0 mm | - | - | - |
| 1788573058 | 25° C | 69% | 1006.8 hPa | 0 mm | - | - | - |
| 1788572458 | 25° C | 70% | 1007 hPa | 0 mm | - | - | - |
| 1788571858 | 25° C | 69% | 1007.1 hPa | 0 mm | - | - | - |
| 1788571258 | 25° C | 71% | 1007.2 hPa | 0 mm | - | - | - |
| 1788570657 | 24.44° C | 73% | 1007.4 hPa | 0 mm | - | - | - |
| 1788570057 | 24.44° C | 74% | 1007.4 hPa | 0 mm | - | - | - |
| 1788569457 | 24.44° C | 76% | 1007.5 hPa | 0 mm | - | - | - |
| 1788568857 | 23.89° C | 77% | 1007.5 hPa | 0 mm | - | - | - |
| 1788568257 | 23.89° C | 76% | 1007.3 hPa | 0 mm | - | - | - |
| 1788567657 | 23.89° C | 77% | 1007.2 hPa | 0 mm | - | - | - |
| 1788567057 | 23.89° C | 79% | 1007.3 hPa | 0 mm | - | - | - |
| 1788566456 | 23.89° C | 79% | 1007.3 hPa | 0 mm | - | - | - |
| 1788565856 | 23.33° C | 82% | 1007.2 hPa | 0 mm | - | - | - |
| 1788565258 | 23.33° C | 82% | 1007.1 hPa | 0 mm | - | - | - |
* Rain latest hour (hover to see other rain measurements)
** Current wind speed in m/s (hover to see current wind gust speed)